Location: Mauléon
(43.9028°N, 0.1531°W)
Time: 19:27:27
(UTC+00:00)

Daily predictions for brighter satellites

Satellite Brightness Start Highest point End
(mag) Time Altitude Azimuth Time Altitude Azimuth Time Altitude Azimuth
SL-08 R/B 4.4 17:47:32 10° N 17:53:42 75° E 17:59:46 10° SSE
Cosmos 1607 4.3 17:47:37 10° SW 17:53:42 70° NW 17:59:54 10° NNE
Radarsat Rocket 4.5 17:48:44 10° SE 17:54:06 39° ENE 17:59:52 10° N
Cosmos 44 Rocket 4.3 17:53:17 10° S 17:57:26 28° ESE 18:01:42 10° NE
YAOGAN 1 2.9 17:54:21 10° SE 17:58:20 41° ENE 18:02:21 10° N
Cosmos 1455 Rocket 4.1 17:54:59 10° NNE 17:58:28 23° ENE 18:01:56 10° SE
PSLV R/B 4.4 17:55:50 10° SE 17:59:15 26° ENE 18:02:40 10° N
Cosmos 2297 Rocket 2.5 17:54:44 10° S 18:00:08 49° ESE 18:05:35 10° NE
COSMO-SKYMED 1 3.1 17:58:24 10° NNE 18:02:12 35° E 18:05:57 10° SSE
Lacrosse 5 rocket 3.2 17:59:51 10° WNW 18:02:12 17° NNW 18:04:36 10° NNE
SPOT 1/Viking Rocket 3.5 18:00:07 10° SSE 18:05:13 86° ENE 18:10:23 10° NNW
CZ-2D R/B 3.7 18:04:30 10° SE 18:08:11 42° ENE 18:11:59 10° N
Aureole 3 Rocket 3.1 18:05:26 10° N 18:08:54 34° ENE 18:11:48 10° SE
Cosmos 2061 Rocket 4.0 18:02:38 10° N 18:09:02 74° E 18:15:18 10° SSE
Cosmos 192 4.5 18:05:13 10° NNW 18:10:06 80° WSW 18:14:59 10° SSE
Meteor 2-1 Rocket 4.3 18:05:34 10° N 18:11:25 74° E 18:17:19 10° SSE
CZ-4C R/B 2.6 18:07:32 10° WSW 18:11:35 49° NW 18:16:44 10° NNE
Okean 1 Rocket 3.0 18:09:35 10° N 18:13:59 69° E 18:18:18 10° SSE
Cosmos 1356 Rocket 3.6 18:10:27 10° NNW 18:14:22 70° W 18:18:20 10° S
SL-16 R/B 4.5 18:09:18 10° N 18:14:30 29° WNW 18:19:42 10° WSW
Cosmos 2344 4.4 18:10:47 10° SSE 18:17:30 28° ESE 18:23:27 10° ENE
Cosmos 2221 Rocket 3.5 18:13:56 10° S 18:18:23 78° E 18:22:54 10° N
Cosmos 1602 4.5 18:17:08 10° SE 18:18:58 16° E 18:19:20 16° E
Okean 2 Rocket 3.1 18:14:50 10° N 18:19:15 88° WSW 18:23:36 10° S
USA 267 4.0 18:16:26 10° NE 18:22:39 48° NNW 18:28:51 10° W
SJ-6B 3.8 18:20:36 10° ESE 18:23:09 20° ENE 18:25:43 10° NNE
Cosmos 2263 Rocket 3.4 18:24:38 10° SSE 18:28:46 21° E 18:31:44 14° ENE
Cosmos 1025 Rocket 3.6 18:24:44 10° SSW 18:28:59 61° W 18:33:17 10° N
ATLAS 5 CENTAUR R/B 4.3 18:25:16 10° WNW 18:29:09 26° WSW 18:33:41 10° S
Cosmos 1980 3.6 18:25:45 10° NNW 18:31:26 71° ENE 18:37:03 10° SSE
Sich 1 Rocket 3.8 18:29:42 10° NNW 18:34:16 77° W 18:38:48 10° S
COSMOS 2428 3.7 18:29:08 10° NW 18:34:40 51° WSW 18:40:09 10° S
Cosmos 2237 Rocket 2.1 18:31:02 10° NNW 18:36:43 72° ENE 18:42:24 10° SSE
SKYMED 2 4.5 18:34:36 10° N 18:38:50 52° WNW 18:43:03 10° SSW
Meteor 1-27 4.3 18:33:45 10° N 18:39:30 63° ENE 18:45:16 10° SSE
SJ-7 4.0 18:35:51 10° SSE 18:39:32 84° ENE 18:43:13 10° NNW
Resurs 1-3 4.0 18:35:35 10° S 18:39:51 66° WSW 18:44:08 10° NNW
SeaSat 1 3.3 18:36:11 10° S 18:40:56 53° WSW 18:45:44 10° NW
Cosmos 1570 Rocket 3.9 18:36:11 10° SSW 18:41:28 82° ESE 18:46:45 10° NNE
Resurs 01 Rocket 1.6 18:38:02 10° SSE 18:42:19 56° ENE 18:46:39 10° N
Cosmos 1125 Rocket 3.9 18:37:47 10° NNW 18:42:57 68° WSW 18:48:06 10° S
SPOT 5 3.9 18:45:52 23° E 18:46:53 24° ENE 18:50:54 10° N
DMSP B5D1-3 4.4 18:49:34 10° NNE 18:54:42 74° ESE 18:59:47 10° S
Tiangong -1.5 18:51:59 10° WSW 18:55:01 44° S 18:55:41 37° SE
Spot 4 Rocket 4.4 18:52:50 10° S 18:57:54 66° WSW 19:03:00 10° NNW
NOAA 6 4.1 18:53:01 10° SSE 18:58:10 81° WSW 19:03:22 10° NNW
USA 234 4.1 18:52:43 10° SSE 18:58:59 48° SW 19:05:18 10° WNW
Cosmos 2227 Rocket 2.1 18:53:51 10° S 18:59:23 63° ESE 19:04:59 10° NNE
Cosmos 773 Rocket 4.0 18:57:05 10° SSW 19:02:21 85° WNW 19:07:41 10° NNE
SL-16 R/B 2.8 18:57:18 10° N 19:02:30 35° NE 19:03:58 31° E
Cosmos 2208 Rocket 4.0 18:57:21 10° SSW 19:02:35 89° ESE 19:07:55 10° NNE
Cosmos 1346 Rocket 2.7 18:59:11 10° S 19:02:39 47° E 19:02:49 46° E
CARTOSAT-1 3.9 18:58:57 10° S 19:03:07 64° W 19:07:18 10° NNW
CZ-4 R/B 3.7 19:17:56 11° N 19:17:56 11° N 19:18:03 10° N
BREEZE-M DEB (TANK) 4.3 19:14:23 10° WNW 19:18:34 88° SSW 19:26:43 23° ESE
ARIANE 6 FM1 Upper Stage 4.1 19:18:46 10° NNW 19:21:05 23° NNE 19:21:05 23° NNE
Gbstr 26 Del rocket 4.3 19:16:47 10° SW 19:23:24 61° SE 19:26:28 36° ENE
CZ-4B R/B 4.4 19:26:09 24° NNE 19:26:09 24° NNE 19:28:52 10° N
Terra 4.1 19:30:49 11° NNE 19:30:49 11° NNE 19:31:08 10° NNE
Cosmos 1816 Rocket 4.4 19:22:15 10° S 19:28:24 88° E 19:34:39 10° N
CZ-4B DEB 4.4 19:29:06 46° ENE 19:29:06 46° ENE 19:34:10 10° N
Helios 1A Rocket 3.2 19:31:19 45° SW 19:31:19 45° SW 19:33:46 10° SSW
Atlas Centaur 2 4.2 19:24:41 10° WSW 19:30:36 25° SSW 19:33:53 17° SSE
Cosmos 2150 Rocket 4.1 19:25:41 10° NNW 19:30:50 74° WSW 19:34:58 16° S
Cosmos 1544 Rocket 4.1 19:26:57 10° N 19:30:03 43° NNE 19:30:03 43° NNE
CSL-04 Debris 4.1 19:30:41 50° ESE 19:31:44 59° ENE 19:37:04 10° N
BREEZE-M (TANK) 3.5 19:29:45 10° WNW 19:32:56 67° SSW 19:36:14 31° SE
Cosmos 2298 Rocket 4.1 19:28:48 10° NNW 19:34:05 74° WSW 19:38:04 18° S
Cosmos 1975 Rocket 3.9 19:31:25 10° SSW 19:35:39 49° WNW 19:39:52 10° N
CSL-04 Rocket 3.5 19:35:10 52° SE 19:36:21 69° ENE 19:41:37 10° N
Cosmos 2034 Rocket 3.8 19:30:13 10° N 19:36:25 77° E 19:42:37 10° SSE
NOSS 3-4 (A) 4.0 19:29:54 10° NW 19:36:49 73° WSW 19:43:28 16° SSE
NOSS 3-4 (C) 4.0 19:30:11 10° NW 19:37:07 74° WSW 19:43:37 17° SSE
Cosmos 1782 3.3 19:34:35 10° NNW 19:37:19 46° NW 19:37:19 46° NW
Cosmos 2228 3.7 19:34:28 10° NNW 19:38:32 51° W 19:42:35 10° S
Cosmos 44 Rocket 4.4 19:33:58 10° WSW 19:38:39 43° NW 19:41:48 20° NNE
Lacrosse 5 rocket 3.8 19:39:44 10° N 19:39:50 10° N 19:39:50 10° N
Cosmos 1634 Rocket 4.2 19:37:38 10° N 19:43:02 48° NE 19:43:02 48° NE
Cosmos 2297 Rocket 4.0 19:39:34 10° WSW 19:44:24 28° NW 19:49:16 10° N
Cosmos 1943 4.5 19:45:17 10° N 19:48:32 27° NNE 19:48:32 27° NNE
DNEPR-1 R/B 4.3 19:47:57 10° NW 19:52:58 68° WSW 19:54:28 48° S
BREEZE-M DEB (TANK) 3.9 19:35:22 10° W 19:54:58 79° N 19:56:30 56° ENE
Cosmos 2219 3.8 19:53:22 10° SSW 19:57:13 44° S 19:57:13 44° S
BREEZE-M DEB (TANK) 3.8 19:57:09 10° SW 20:01:24 83° SSE 20:04:47 44° ENE
CZ-4C R/B 4.5 19:58:34 10° NW 20:01:24 15° NNW 20:04:23 11° NNE
Feng Yun 1-1 Rocket 4.4 20:09:36 72° N 20:09:36 72° N 20:14:52 10° NNW
Cosmos 2263 Rocket 2.6 20:06:33 10° SW 20:12:09 60° WNW 20:13:31 47° N
SPOT 5 4.0 20:24:54 42° W 20:24:54 42° W 20:29:19 10° NNW
Cosmos 2344 3.8 20:23:37 10° SW 20:31:20 59° NW 20:33:48 41° N
Cosmos 2227 Rocket 4.3 20:39:27 10° WSW 20:43:53 23° NW 20:47:09 15° N
SL-16 R/B 3.5 20:41:25 10° NW 20:45:53 36° W 20:45:53 36° W
